DW7322 Weather Reports


Display with metric or nautical units.
time (UTC)temp
F
wind
direction
speed
MPH
gust
MPH
rain 1hr
in
rain 24hr
in
rain mn
in
humidity
%
barometer
mb
20260831013053 72 236 0.0 0.0 0.01 0.13 0.12 94 1015.3
20260831011521 72 236 0.0 0.0 0.00 0.12 0.11 93 1015.0
20260831010022 72 235 0.0 0.0 0.00 0.12 0.11 93 1014.8
20260831004540 72 236 0.0 0.0 0.00 0.12 0.11 93 1015.0
20260831003004 73 236 0.0 0.0 0.00 0.12 0.11 92 1014.6
20260831001524 73 236 0.0 0.0 0.00 0.12 0.11 92 1014.5
20260831000048 73 213 0.0 0.0 0.00 0.12 0.11 93 1014.4
20260830234544 73 131 0.0 0.0 0.00 0.12 0.11 93 1014.6
20260830233107 73 112 0.0 0.0 0.00 0.12 0.11 93 1014.9
20260830231529 73 172 0.0 0.0 0.01 0.12 0.11 92 1014.7
20260830230018 73 196 0.0 0.0 0.01 0.13 0.11 93 1014.7
20260830224541 73 196 0.0 0.0 0.01 0.13 0.11 92 1014.7
20260830223100 73 255 0.0 0.0 0.01 0.13 0.11 92 1014.9
20260830223000 73 255 0.0 0.0 0.01 0.13 0.11 92 1015.0
20260830221524 73 257 0.0 0.0 0.00 0.12 0.10 91 1015.6
20260830220054 74 256 0.0 0.0 0.00 0.12 0.10 91 1015.4
20260830214552 74 257 0.0 0.0 0.00 0.12 0.10 91 1015.4
20260830213010 74 257 0.0 0.0 0.00 0.12 0.10 90 1015.2
20260830211534 75 257 0.0 0.0 0.00 0.12 0.10 91 1015.4
20260830210100 75 257 0.0 0.0 0.00 0.12 0.10 89 1015.3
20260830204544 75 257 0.0 0.0 0.01 0.12 0.10 89 1015.2
20260830203010 74 257 0.0 0.0 0.01 0.12 0.10 90 1015.3
20260830201530 74 257 0.0 0.0 0.02 0.12 0.10 91 1015.3
20260830200025 73 238 0.0 0.0 0.03 0.12 0.10 92 1015.4
20260830194545 73 238 0.0 0.0 0.02 0.11 0.09 90 1015.4
20260830193008 74 238 0.0 0.0 0.02 0.11 0.09 89 1015.5
20260830191532 74 238 0.0 0.0 0.01 0.10 0.08 88 1015.4
20260830190054 75 238 0.0 0.0 0.00 0.09 0.07 87 1015.1
20260830184549 75 238 0.0 0.0 0.00 0.09 0.07 86 1015.1
20260830183012 78 238 0.0 0.0 0.00 0.09 0.07 79 1014.7
20260830181532 80 236 0.0 1.0 0.00 0.09 0.07 75 1014.6
20260830180057 81 258 0.0 0.0 0.00 0.09 0.07 73 1014.1
20260830174551 82 236 0.0 1.0 0.00 0.09 0.07 71 1013.9
20260830173055 81 218 0.0 0.0 0.00 0.09 0.07 72 1014.1
20260830173004 81 218 0.0 0.0 0.00 0.09 0.07 72 1014.2
20260830171520 80 248 0.0 0.0 0.00 0.09 0.07 74 1014.5
20260830170039 79 262 0.0 0.0 0.00 0.09 0.07 77 1014.6
20260830164548 77 217 0.0 0.0 0.00 0.09 0.07 79 1014.7
20260830163047 77 228 0.0 1.0 0.00 0.09 0.07 79 1014.5
20260830161512 77 204 0.0 1.0 0.00 0.09 0.07 79 1014.7
20260830160005 76 226 0.0 0.0 0.00 0.09 0.07 80 1014.8
20260830154528 75 239 0.0 1.0 0.00 0.09 0.07 83 1014.7
20260830153045 75 294 0.0 0.0 0.00 0.09 0.07 83 1014.6
20260830151510 75 236 0.0 0.0 0.00 0.09 0.07 83 1014.7
20260830150006 74 217 0.0 2.0 0.00 0.09 0.07 86 1014.5
20260830144515 72 238 0.0 0.0 0.00 0.09 0.07 90 1014.3
20260830143034 70 260 0.0 1.0 0.00 0.09 0.07 92 1014.6
20260830141542 69 224 0.0 1.0 0.00 0.09 0.07 94 1014.8
20260830140100 69 98 0.0 0.0 0.00 0.09 0.07 94 1015.2
20260830134550 68 245 0.0 0.0 0.00 0.09 0.07 95 1014.9
20260830133015 67 245 0.0 0.0 0.03 0.09 0.07 94 1015.1
20260830131536 67 222 0.0 1.0 0.04 0.09 0.07 95 1015.2
20260830130109 67 252 0.0 0.0 0.04 0.09 0.07 95 1015.8
20260830124558 66 250 0.0 0.0 0.05 0.09 0.07 94 1015.8
20260830123022 66 250 0.0 0.0 0.03 0.06 0.04 94 1016.3
20260830121545 66 250 0.0 0.0 0.03 0.05 0.03 94 1016.2
20260830120105 66 250 0.0 0.0 0.04 0.05 0.03 93 1015.7
20260830114505 66 250 0.0 0.0 0.03 0.04 0.02 93 1016.0
20260830113024 67 251 0.0 0.0 0.02 0.03 0.01 92 1015.5
20260830111540 67 250 0.0 0.0 0.01 0.02 0.00 90 1015.4
20260830110108 67 250 0.0 0.0 0.00 0.01 0.01 89 1015.0
20260830104503 67 250 0.0 0.0 0.00 0.01 0.01 88 1014.8
20260830103021 67 245 0.0 0.0 0.00 0.01 0.01 88 1014.6
20260830101550 67 231 0.0 1.0 0.00 0.01 0.01 88 1014.6
20260830100110 67 152 0.0 0.0 0.00 0.01 0.01 88 1014.5
20260830094503 67 149 0.0 0.0 0.00 0.01 0.01 87 1014.3
20260830093022 67 240 0.0 0.0 0.00 0.01 0.01 87 1014.3
20260830091538 67 217 0.0 0.0 0.00 0.01 0.01 87 1014.5
20260830090103 67 146 0.0 0.0 0.00 0.01 0.01 86 1014.7
20260830084602 67 146 0.0 0.0 0.00 0.01 0.01 85 1014.8
20260830083018 68 181 0.0 0.0 0.00 0.01 0.01 85 1014.8
20260830081546 68 72 0.0 2.0 0.00 0.01 0.01 84 1014.8
20260830080054 68 255 0.0 0.0 0.00 0.01 0.01 84 1015.0
20260830074609 68 204 0.0 0.0 0.00 0.01 0.01 84 1015.1
20260830073028 68 195 0.0 1.0 0.00 0.01 0.01 84 1015.2
20260830071551 69 122 0.0 0.0 0.00 0.01 0.01 84 1015.2
20260830070101 69 213 0.0 0.0 0.00 0.01 0.01 83 1015.3
20260830064550 69 207 0.0 1.0 0.00 0.01 0.01 83 1015.5
20260830063029 69 205 0.0 1.0 0.00 0.01 0.01 83 1015.5
20260830061538 70 212 0.0 1.0 0.00 0.01 0.01 82 1015.6
20260830060100 70 239 0.0 1.0 0.00 0.01 0.01 81 1015.8
20260830054557 71 223 0.0 0.0 0.00 0.01 0.01 81 1015.8
20260830053016 71 250 0.0 0.0 0.00 0.01 0.01 81 1015.8
20260830051541 71 216 0.0 6.0 0.00 0.01 0.01 81 1015.8
20260830050100 71 250 0.0 3.0 0.00 0.01 0.01 81 1015.6
20260830044547 71 257 0.0 1.0 0.00 0.01 0.01 83 1015.6
20260830043011 71 264 0.0 1.0 0.00 0.01 0.01 83 1015.7
20260830041535 71 256 0.0 3.0 0.00 0.01 0.01 84 1015.9
20260830040104 70 245 0.0 1.0 0.00 0.01 0.01 85 1015.9
20260830034552 70 199 0.0 3.0 0.00 0.01 0.01 85 1016.1
20260830033019 70 214 0.0 1.0 0.00 0.01 0.01 86 1016.1
20260830031542 70 191 0.0 1.0 0.00 0.01 0.01 85 1016.0
20260830030137 71 219 0.0 1.0 0.00 0.01 0.01 85 1016.0
20260830024556 71 120 0.0 6.0 0.00 0.01 0.01 86 1015.9
20260830023022 70 213 0.0 0.0 0.00 0.01 0.01 87 1016.0
20260830021549 70 61 0.0 1.0 0.00 0.01 0.01 88 1016.1
20260830020109 70 205 0.0 0.0 0.00 0.01 0.01 87 1016.1
20260830014502 70 213 0.0 0.0 0.00 0.01 0.01 87 1016.0